Satellite: LIBERT
Catalog number: 31129
Epoch time:      08143.67523408
Element set:     985
Inclination:      098.0418 deg
RA of node:       208.2318 deg
Eccentricity:    0.0103811
Arg of perigee:   054.1727 deg
Mean anomaly:     306.9028 deg
Mean motion:   14.52036529 rev/day
Decay rate:       3.40e-06 rev/day^2
Epoch rev:            5821
Checksum:              280

/EX
SB KEPS @ AMSAT  $ORB08143.W
Orbital Elements  08143.WEATHER

HR AMSAT ORBITAL ELEMENTS FOR WEATHER SATELLITES
FROM WA5QGD FORT WORTH,TX May 22, 2008
Send Subscribe/unsubscribe to KEPS at 
http://www.amsat.org/mailman/listinfo/keps
BID: ORB08143.W
TO ALL RADIO AMATEURS BT

Satellite: NOAA-10
Catalog number: 16969
Epoch time:      08142.79732728
Element set:    0128
Inclination:      098.7223 deg
RA of node:       164.8188 deg
Eccentricity:    0.0011435
Arg of perigee:   258.2533 deg
Mean anomaly:     101.7381 deg
Mean motion:   14.27359812 rev/day
Decay rate:        2.6e-07 rev/day^2
Epoch rev:           12767
Checksum:              317

Satellite: NOAA-11
Catalog number: 19531
Epoch time:      08142.64864306
Element set:    0170
Inclination:      098.7970 deg
RA of node:       232.3425 deg
Eccentricity:    0.0012058
Arg of perigee:   140.8400 deg
Mean anomaly:     219.3653 deg
Mean motion:   14.14872471 rev/day
Decay rate:       2.29e-06 rev/day^2
Epoch rev:           01415
Checksum:              277

Satellite: NOAA-12
Catalog number: 21263
Epoch time:      08142.67053100
Element set:    0680
Inclination:      098.7645 deg
RA of node:       144.6254 deg
Eccentricity:    0.0012124
Arg of perigee:   198.1048 deg
Mean anomaly:     161.9680 deg
Mean motion:   14.25532843 rev/day
Decay rate:       1.03e-06 rev/day^2
Epoch rev:           88461
Checksum:              283

Satellite: MET-3/5
Catalog number: 21655
Epoch time:      08142.90782631
Element set:    0475
Inclination:      082.5522 deg
RA of node:       122.9498 deg
Eccentricity:    0.0015017
Arg of perigee:   078.7735 deg
Mean anomaly:     281.5074 deg
Mean motion:   13.17015321 rev/day
Decay rate:        5.1e-07 rev/day^2
Epoch rev:           80612
Checksum:              289

Satellite: MET-2/21
Catalog number: 22782
Epoch time:      08142.52533791
Element set:     148
Inclination:      082.5445 deg
RA of node:       132.7287 deg
Eccentricity:    0.0023026
Arg of perigee:   009.2106 deg
Mean anomaly:     350.9469 deg
Mean motion:   13.83627813 rev/day
Decay rate:        6.0e-07 rev/day^2
Epoch rev:           74344
Checksum:              295

Satellite: OKEAN-4
Catalog number: 23317
Epoch time:      08142.73572870
Element set:    0593
Inclination:      082.5381 deg
RA of node:       339.7538 deg
Eccentricity:    0.0021092
Arg of perigee:   210.6683 deg
Mean anomaly:     149.3291 deg
Mean motion:   14.82611545 rev/day
Decay rate:       2.50e-06 rev/day^2
Epoch rev:           73436
Checksum:              302

Satellite: NOAA-14
Catalog number: 23455
Epoch time:      08142.72470035
Element set:    0151
Inclination:      098.9473 deg
RA of node:       214.9507 deg
Eccentricity:    0.0008992
Arg of perigee:   214.5665 deg
Mean anomaly:     145.4922 deg
Mean motion:   14.13740668 rev/day
Decay rate:      -2.13e-06 rev/day^2
Epoch rev:           69061
Checksum:              305

Satellite: SICH-1
Catalog number: 23657
Epoch time:      08143.75388680
Element set:     391
Inclination:      082.5251 deg
RA of node:       119.7828 deg
Eccentricity:    0.0023041
Arg of perigee:   199.5847 deg
Mean anomaly:     160.4483 deg
Mean motion:   14.81578352 rev/day
Decay rate:        9.1e-07 rev/day^2
Epoch rev:           68645
Checksum:              330

Satellite: NOAA-15
Catalog number: 25338
Epoch time:      08142.67013622
Element set:    0473
Inclination:      098.5525 deg
RA of node:       135.2047 deg
Eccentricity:    0.0011684
Arg of perigee:   116.4896 deg
Mean anomaly:     243.7489 deg
Mean motion:   14.24701779 rev/day
Decay rate:        5.3e-07 rev/day^2
Epoch rev:           52102
Checksum:              302

Satellite: RESURS
Catalog number: 25394
Epoch time:      08142.97336175
Element set:    0933
Inclination:      098.3899 deg
RA of node:       188.1244 deg
Eccentricity:    0.0000913
Arg of perigee:   319.1525 deg
Mean anomaly:     040.9586 deg
Mean motion:   14.24159547 rev/day
Decay rate:       -4.0e-08 rev/day^2
Epoch rev:           51271
Checksum:              313

Satellite: FENGYUN1
Catalog number: 25730
Epoch time:      08142.97169524
Element set:    0470
Inclination:      098.7223 deg
RA of node:       119.6472 deg
Eccentricity:    0.0018943
Arg of perigee:   247.8244 deg
Mean anomaly:     112.0914 deg
Mean motion:   14.07691861 rev/day
Decay rate:      -3.91e-06 rev/day^2
Epoch rev:           46527
Checksum:              312

Satellite: OKEAN-0
Catalog number: 25860
Epoch time:      08143.58393702
Element set:     373
Inclination:      097.7483 deg
RA of node:       135.2664 deg
Eccentricity:    0.0001585
Arg of perigee:   047.1048 deg
Mean anomaly:     313.0283 deg
Mean motion:   14.73521543 rev/day
Decay rate:        3.8e-07 rev/day^2
Epoch rev:           47562
Checksum:              296

Satellite: NOAA-16
Catalog number: 26536
Epoch time:      08142.71435408
Element set:    0941
Inclination:      099.1550 deg
RA of node:       131.3121 deg
Eccentricity:    0.0009779
Arg of perigee:   303.1817 deg
Mean anomaly:     056.8377 deg
Mean motion:   14.12481558 rev/day
Decay rate:       -5.0e-08 rev/day^2
Epoch rev:           39503
Checksum:              299

Satellite: NOAA-17
Catalog number: 27453
Epoch time:      08142.77297679
Element set:    0933
Inclination:      098.5355 deg
RA of node:       208.1619 deg
Eccentricity:    0.0011954
Arg of perigee:   180.0496 deg
Mean anomaly:     180.0676 deg
Mean motion:   14.23975032 rev/day
Decay rate:       1.36e-06 rev/day^2
Epoch rev:           30704
Checksum:              321

Satellite: NOAA-18
Catalog number: 28654
Epoch time:      08142.74792713
Element set:    0436
Inclination:      098.8667 deg
RA of node:       084.0039 deg
Eccentricity:    0.0014969
Arg of perigee:   031.9083 deg
Mean anomaly:     328.2993 deg
Mean motion:   14.11165490 rev/day
Decay rate:       4.18e-06 rev/day^2
Epoch rev:           15474
Checksum:              335

/EX
SB KEPS @ AMSAT  $ORB08143.M
Orbital Elements  08143.MISC

HR AMSAT ORBITAL ELEMENTS FOR MANNED AND MISCELLANEOUS SATELLITES
FROM WA5QGD FORT WORTH,TX May 22, 2008
Send Subscribe/unsubscribe to KEPS at 
http://www.amsat.org/mailman/listinfo/keps
BID: ORB08143.M
TO ALL RADIO AMATEURS BT

Satellite: HUBBLE
Catalog number: 20580
Epoch time:      08142.40360793
Element set:    0151
Inclination:      028.4678 deg
RA of node:       137.9172 deg
Eccentricity:    0.0003815
Arg of perigee:   102.3188 deg
Mean anomaly:     257.7828 deg
Mean motion:   15.00379091 rev/day
Decay rate:       3.05e-06 rev/day^2
Epoch rev:           79095
Checksum:              295

Satellite: UARS
Catalog number: 21701
Epoch time:      08142.87662611
Element set:     370
Inclination:      056.9729 deg
RA of node:       276.1656 deg
Eccentricity:    0.0089391
Arg of perigee:   128.2859 deg
Mean anomaly:     232.6284 deg
Mean motion:   15.51826937 rev/day
Decay rate:      6.761e-05 rev/day^2
Epoch rev:           91841
Checksum:              334

Satellite: PO-34
Catalog number: 25520
Epoch time:      08143.80564661
Element set:     998
Inclination:      028.4593 deg
RA of node:       348.7081 deg
Eccentricity:    0.0005136
Arg of perigee:   008.6003 deg
Mean anomaly:     351.4678 deg
Mean motion:   15.17191437 rev/day
Decay rate:       3.74e-06 rev/day^2
Epoch rev:           52930
Checksum:              309

Satellite: ISS
Catalog number: 25544
Epoch time:      08143.32928241
Element set:     526
Inclination:      051.6376 deg
RA of node:       149.6881 deg
Eccentricity:    0.0005602
Arg of perigee:   240.3546 deg
Mean anomaly:     318.8778 deg
Mean motion:   15.76401038 rev/day
Decay rate:      8.455e-05 rev/day^2
Epoch rev:           54444
Checksum:              310

Satellite: OO-38
Catalog number: 26063
Epoch time:      08143.71747497
Element set:     216
Inclination:      100.1919 deg
RA of node:       213.7204 deg
Eccentricity:    0.0036546
Arg of perigee:   281.5202 deg
Mean anomaly:     078.1879 deg
Mean motion:   14.35835438 rev/day
Decay rate:       -2.7e-07 rev/day^2
Epoch rev:           43591
Checksum:              310

Satellite: UWE-1
Catalog number: 28892
Epoch time:      08142.69178309
Element set:    0053
Inclination:      098.1002 deg
RA of node:       036.9630 deg
Eccentricity:    0.0018299
Arg of perigee:   130.1041 deg
Mean anomaly:     230.1761 deg
Mean motion:   14.59628844 rev/day
Decay rate:       1.58e-06 rev/day^2
Epoch rev:           13673
Checksum:              297

Satellite: CO-58
Catalog number: 28895
Epoch time:      08142.66043113
Element set:    0027
Inclination:      098.1038 deg
RA of node:       037.2807 deg
Eccentricity:    0.0018921
Arg of perigee:   130.4538 deg
Mean anomaly:     229.8326 deg
Mean motion:   14.59668684 rev/day
Decay rate:        9.4e-07 rev/day^2
Epoch rev:           13661
Checksum:              324

Satellite: NCUBE2
Catalog number: 28897
Epoch time:      08142.21680553
Element set:    0558
Inclination:      098.0992 deg
RA of node:       036.7782 deg
Eccentricity:    0.0017816
Arg of perigee:   131.9558 deg
Mean anomaly:     228.3159 deg
Mean motion:   14.59838622 rev/day
Decay rate:        8.5e-07 rev/day^2
Epoch rev:           12883
Checksum:              347

